Location: M.A.R.S.Observatory
(35.4031°N, 81.5481°W)
Time: 18:19:03
(UTC-04:00)

SL-8 R/B - Visible Passes

Search period start: 16 October 2017 00:00
Search period end: 26 October 2017 00:00
Orbit: 656 x 668 km, 48.4° (Epoch: 16 October)

Date Brightness Start Highest point End Pass type
(mag) Time Alt. Az. Time Alt. Az. Time Alt. Az.
16 Oct 3.8 19:47:39 10° WSW 19:52:28 76° NW 19:56:26 15° NE visible
16 Oct 5.9 21:31:44 10° WNW 21:34:27 21° NW 21:34:27 21° NW visible
17 Oct 4.9 20:19:15 10° W 20:23:42 37° NNW 20:26:18 21° NNE visible
17 Oct 6.8 22:04:03 10° NW 22:04:18 11° NW 22:04:18 11° NW visible
18 Oct 4.0 19:07:14 10° WSW 19:12:02 72° NW 19:16:52 10° NE visible
18 Oct 5.5 20:51:24 10° WNW 20:55:12 23° NNW 20:56:05 21° N visible
19 Oct 5.0 19:38:52 10° W 19:43:17 35° NNW 19:47:43 10° NE visible
19 Oct 6.1 21:23:41 10° NW 21:25:48 16° NNW 21:25:48 16° NNW visible
20 Oct 5.6 20:11:04 10° WNW 20:14:48 22° NNW 20:17:29 14° NNE visible
21 Oct 5.7 20:43:20 10° NW 20:46:33 17° N 20:47:07 17° N visible
22 Oct 5.6 19:30:43 10° WNW 19:34:25 21° NNW 19:38:07 10° NE visible
22 Oct 6.1 21:15:06 10° NW 21:16:43 15° NNW 21:16:43 15° NNW visible
23 Oct 5.8 20:02:58 10° NW 20:06:09 17° N 20:08:21 13° NNE visible
23 Oct 6.7 21:46:15 10° NW 21:46:19 10° NW 21:46:19 10° NW visible
24 Oct 5.6 20:34:42 10° NW 20:37:57 18° N 20:37:57 18° N visible
25 Oct 5.7 19:22:37 10° NW 19:25:46 17° N 19:28:56 10° NE visible
25 Oct 5.9 21:05:48 10° NW 21:07:33 18° NNW 21:07:33 18° NNW visible
